Weather History for KOSC - October, 2013

Change the Weather History Date:

Thursday, October 10, 2013

  Actual Average Record
Temperature  
Mean Temperature 52 °F -  
Max Temperature 67 °F 58 °F 71 °F (2010)
Min Temperature 37 °F 40 °F 31 °F (2012)
Degree Days  
Heating Degree Days 13    
Growing Degree Days 2 (Base 50)    
Moisture  
Dew Point 47 °F    
Average Humidity 84    
Maximum Humidity 99    
Minimum Humidity 43    
Precipitation  
Precipitation 0.00 in - - ()
Sea Level Pressure  
Sea Level Pressure 30.20 in    
Wind  
Wind Speed 2 mph (SE)    
Max Wind Speed 10 mph    
Max Gust Speed -    
Visibility 8 miles    
Events Fog    
Averages and records for this station are not official NWS values.
T = Trace of Precipitation, MM = Missing Value Source: NWS Daily Summary

Daily Weather History Graph

Daily Weather History Graph

Search for Another Location

Airport or City:

Trip Planner

Search our weather history database for the weather conditions in past years. The results will help you decide how hot, cold, wet, or windy it might be!

Date:

Astronomy

Oct. 10, 2013 Rise Set
Actual Time 7:42 AM EDT 6:57 PM EDT
Civil Twilight 7:13 AM EDT 7:26 PM EDT
Nautical Twilight 6:39 AM EDT 8:00 PM EDT
Astronomical Twilight 6:06 AM EDT 8:33 PM EDT
Moon 1:42 PM EDT (10/10) 11:25 PM EDT (10/10)
Length of Visible Light 12h 13m
Length of Day
11h 14m
Waxing Crescent, 35% of the Moon is Illuminated
Oct 10
Waxing Crescent
Oct 11
First Quarter
Oct 18
Full
Oct 26
Last Quarter
Nov 3
New

Hourly Weather History & Observations

Time (EDT) Temp. Windchill Dew Point Humidity Pressure Visibility Wind Dir Wind Speed Gust Speed Precip Events Conditions
12:14 AM 45.3 °F - 44.2 °F 96% 30.23 in 10.0 mi Calm Calm - N/A   Mostly Cloudy
12:34 AM 47.1 °F - 44.8 °F 92% 30.22 in 10.0 mi Calm Calm - N/A   Scattered Clouds
12:53 AM 44.8 °F - 43.0 °F 93% 30.23 in 10.0 mi Calm Calm - N/A   Clear
1:14 AM 46.4 °F - 44.1 °F 92% 30.22 in 10.0 mi Calm Calm - N/A   Clear
1:34 AM 44.1 °F - 41.9 °F 92% 30.23 in 5.0 mi Calm Calm - N/A   Mostly Cloudy
1:53 AM 43.7 °F 42.1 °F 41.7 °F 93% 30.22 in 10.0 mi WSW 3.5 mph - N/A   Scattered Clouds
2:14 AM 43.7 °F 42.1 °F 42.8 °F 97% 30.22 in 10.0 mi SSW 3.5 mph - N/A   Clear
2:33 AM 42.8 °F 41.1 °F 41.7 °F 96% 30.22 in 3.0 mi SW 3.5 mph - N/A   Scattered Clouds
2:53 AM 41.9 °F 40.0 °F 40.6 °F 95% 30.22 in 7.0 mi SW 3.5 mph - N/A   Scattered Clouds
3:14 AM 43.2 °F 40.5 °F 42.4 °F 97% 30.22 in 7.0 mi SW 4.6 mph - N/A   Clear
3:33 AM 42.6 °F - 41.4 °F 95% 30.22 in 10.0 mi Calm Calm - N/A   Clear
3:53 AM 43.0 °F - 41.9 °F 96% 30.22 in 5.0 mi Calm Calm - N/A   Clear
4:14 AM 44.8 °F - 42.6 °F 92% 30.22 in 10.0 mi Calm Calm - N/A   Scattered Clouds
4:33 AM 44.1 °F - 42.1 °F 93% 30.22 in 10.0 mi Calm Calm - N/A   Scattered Clouds
4:53 AM 39.4 °F 37.2 °F 37.6 °F 93% 30.22 in 10.0 mi SW 3.5 mph - N/A   Clear
5:14 AM 39.6 °F - 38.3 °F 95% 30.22 in 10.0 mi Calm Calm - N/A   Clear
5:33 AM 38.3 °F - 37.0 °F 95% 30.22 in 10.0 mi Calm Calm - N/A   Clear
5:53 AM 38.1 °F 35.7 °F 37.2 °F 97% 30.23 in 1.5 mi WSW 3.5 mph - N/A   Mostly Cloudy
6:14 AM 37.4 °F - 36.5 °F 97% 30.23 in 0.5 mi Calm Calm - N/A Fog Fog
6:33 AM 38.1 °F 35.7 °F 37.0 °F 96% 30.23 in 2.0 mi North 3.5 mph - N/A   Overcast
6:54 AM 40.3 °F 38.2 °F 39.4 °F 97% 30.23 in 10.0 mi NW 3.5 mph - N/A   Scattered Clouds
7:14 AM 41.0 °F - 40.3 °F 97% 30.24 in 10.0 mi Calm Calm - N/A   Clear
7:33 AM 41.4 °F - 41.0 °F 99% 30.24 in 10.0 mi Calm Calm - N/A   Clear
7:53 AM 39.4 °F - 38.7 °F 97% 30.24 in 3.0 mi Calm Calm - N/A   Clear
8:14 AM 38.1 °F - 37.2 °F 97% 30.24 in 10.0 mi Calm Calm - N/A   Clear
8:33 AM 38.3 °F - 36.7 °F 94% 30.24 in 10.0 mi Calm Calm - N/A   Clear
8:53 AM 43.5 °F - 42.6 °F 97% 30.24 in 10.0 mi Calm Calm - N/A   Clear
9:14 AM 47.7 °F - 46.2 °F 95% 30.24 in 10.0 mi Calm Calm - N/A   Clear
9:33 AM 50.7 °F - 47.7 °F 89% 30.24 in 10.0 mi Calm Calm - N/A   Clear
9:54 AM 53.6 °F - 48.7 °F 84% 30.24 in 10.0 mi Calm Calm - N/A   Clear
10:13 AM 56.3 °F - 50.2 °F 80% 30.24 in 10.0 mi Calm Calm - N/A   Clear
10:33 AM 58.5 °F - 48.6 °F 70% 30.24 in 10.0 mi Calm Calm - N/A   Clear
10:54 AM 61.0 °F - 52.9 °F 75% 30.23 in 10.0 mi SSE 3.5 mph - N/A   Clear
11:13 AM 61.9 °F - 52.5 °F 71% 30.23 in 10.0 mi ESE 4.6 mph - N/A   Clear
11:34 AM 62.8 °F - 51.3 °F 66% 30.23 in 10.0 mi ESE 3.5 mph - N/A   Clear
11:54 AM 63.7 °F - 51.6 °F 65% 30.23 in 10.0 mi ESE 5.8 mph - N/A   Clear
12:13 PM 63.5 °F - 52.3 °F 67% 30.23 in 10.0 mi East 5.8 mph - N/A   Clear
12:34 PM 64.0 °F - 52.9 °F 67% 30.23 in 10.0 mi East 6.9 mph - N/A   Clear
12:54 PM 64.2 °F - 51.6 °F 64% 30.23 in 10.0 mi SE 4.6 mph - N/A   Clear
1:13 PM 64.8 °F - 52.0 °F 63% 30.22 in 10.0 mi ESE 6.9 mph - N/A   Clear
1:34 PM 65.1 °F - 52.7 °F 64% 30.22 in 10.0 mi ESE 6.9 mph - N/A   Clear
1:54 PM 65.1 °F - 52.0 °F 62% 30.21 in 10.0 mi ESE 8.1 mph - N/A   Clear
2:13 PM 65.7 °F - 49.3 °F 55% 30.20 in 10.0 mi SE 9.2 mph - N/A   Clear
2:33 PM 65.8 °F - 49.1 °F 55% 30.19 in 10.0 mi ESE 9.2 mph - N/A   Clear
2:53 PM 66.0 °F - 49.3 °F 55% 30.19 in 10.0 mi ESE 10.4 mph - N/A   Clear
3:13 PM 66.4 °F - 51.3 °F 58% 30.18 in 10.0 mi ESE 8.1 mph - N/A   Clear
3:34 PM 66.4 °F - 51.3 °F 58% 30.18 in 10.0 mi SE 8.1 mph - N/A   Clear
3:53 PM 66.2 °F - 50.5 °F 57% 30.18 in 10.0 mi South 9.2 mph - N/A   Clear
4:13 PM 67.5 °F - 44.4 °F 43% 30.17 in 10.0 mi South 9.2 mph - N/A   Clear
4:34 PM 67.3 °F - 44.2 °F 43% 30.17 in 10.0 mi SSE 5.8 mph - N/A   Clear
4:53 PM 65.1 °F - 54.5 °F 68% 30.16 in 10.0 mi ESE 6.9 mph - N/A   Clear
5:13 PM 64.6 °F - 54.9 °F 71% 30.16 in 10.0 mi ESE 6.9 mph - N/A   Clear
5:34 PM 64.2 °F - 54.5 °F 71% 30.16 in 10.0 mi ESE 9.2 mph - N/A   Clear
5:53 PM 63.1 °F - 53.2 °F 70% 30.16 in 10.0 mi SE 5.8 mph - N/A   Clear
6:13 PM 62.6 °F - 53.6 °F 72% 30.16 in 10.0 mi SE 5.8 mph - N/A   Clear
6:34 PM 61.9 °F - 54.7 °F 77% 30.16 in 10.0 mi ESE 4.6 mph - N/A   Clear
6:53 PM 60.8 °F - 55.6 °F 83% 30.16 in 10.0 mi ESE 3.5 mph - N/A   Clear
7:13 PM 59.9 °F - 55.8 °F 86% 30.16 in 10.0 mi ESE 3.5 mph - N/A   Clear
7:34 PM 59.7 °F - 56.1 °F 88% 30.16 in 10.0 mi East 4.6 mph - N/A   Clear
7:53 PM 56.7 °F - 55.0 °F 94% 30.16 in 10.0 mi Calm Calm - N/A   Clear
8:14 PM 56.3 °F - 55.4 °F 97% 30.15 in 7.0 mi Calm Calm - N/A   Clear
8:34 PM 56.3 °F - 54.9 °F 95% 30.15 in 10.0 mi Calm Calm - N/A   Clear
8:53 PM 52.7 °F - 51.3 °F 95% 30.15 in 5.0 mi Calm Calm - N/A   Clear
9:14 PM 50.7 °F - 49.8 °F 97% 30.15 in 7.0 mi Calm Calm - N/A   Clear
9:34 PM 50.0 °F - 48.9 °F 96% 30.15 in 5.0 mi Calm Calm - N/A   Clear
9:53 PM 47.3 °F - 45.7 °F 94% 30.15 in 10.0 mi Calm Calm - N/A   Clear
10:14 PM 45.7 °F - 45.0 °F 97% 30.15 in 0.2 mi Calm Calm - N/A Fog Fog
10:33 PM 46.0 °F - 45.5 °F 98% 30.16 in 0.5 mi Calm Calm - N/A Fog Fog
10:53 PM 45.0 °F - 44.6 °F 99% 30.16 in 0.2 mi Calm Calm - N/A Fog Fog
11:14 PM 44.8 °F - 44.4 °F 99% 30.15 in 0.2 mi Calm Calm - N/A Fog Fog
11:33 PM 44.6 °F - 44.2 °F 99% 30.15 in 0.5 mi Calm Calm - N/A Fog Fog
11:53 PM 43.3 °F - 43.0 °F 99% 30.15 in 0.5 mi Calm Calm - N/A Fog Fog